When you browse on this site, cookies collect data to enhance your experience and personalize the content and advertising you see.
Visit our Privacy Policy to learn more. By continuing to use the site, you agree to this use of cookies and data.
  • în România
  • Lista ţărilor
  • Pe 7 zile
  • Temperatura apei
  • Hartă satelitară
  • Meteo pe hartă
  • Widget-uri
  • user-avatar
    Intrare

    Meteo pe oră la Malaya Kiselenka

    Astăzi, 16 Ianuarie, Miercuri

    Timp Temperatura Precipitaţii Vânt Presiune Umiditate
    00:00 -9°C° 0.1 mm 4 m/s 727 mmHg 90%
    01:00 -9°C° 0.1 mm 4 m/s 728 mmHg 91%
    02:00 -9°C° 0 mm 4 m/s 728 mmHg 91%
    03:00 -9°C° 0 mm 3 m/s 728 mmHg 91%
    04:00 -9°C° 0 mm 3 m/s 728 mmHg 91%
    05:00 -9°C° 0 mm 3 m/s 729 mmHg 91%
    06:00 -10°C° 0 mm 3 m/s 729 mmHg 92%
    07:00 -10°C° 0 mm 3 m/s 729 mmHg 93%
    08:00 -12°C° 0 mm 3 m/s 729 mmHg 94%
    09:00 -10°C° 0 mm 3 m/s 729 mmHg 93%
    10:00 -10°C° 0 mm 3 m/s 730 mmHg 92%
    11:00 -9°C° 0 mm 3 m/s 730 mmHg 92%
    12:00 -9°C° 0 mm 3 m/s 730 mmHg 91%
    13:00 -9°C° 0 mm 3 m/s 730 mmHg 90%
    14:00 -6°C° 0 mm 2 m/s 730 mmHg 90%
    15:00 -6°C° 0 mm 2 m/s 731 mmHg 91%
    16:00 -8°C° 0 mm 3 m/s 731 mmHg 91%
    17:00 -8°C° 0 mm 3 m/s 731 mmHg 92%
    18:00 -8°C° 0 mm 3 m/s 732 mmHg 92%
    19:00 -7°C° 0 mm 3 m/s 732 mmHg 92%
    20:00 -7°C° 0 mm 3 m/s 732 mmHg 92%
    21:00 -8°C° 0 mm 3 m/s 733 mmHg 92%
    22:00 -8°C° 0 mm 3 m/s 733 mmHg 92%
    23:00 -8°C° 0 mm 3 m/s 733 mmHg 91%

    Mâine, 17 Ianuarie, Joi

    Timp Temperatura Precipitaţii Vânt Presiune Umiditate
    00:00 -8°C° 0 mm 3 m/s 733 mmHg 90%
    01:00 -8°C° 0 mm 3 m/s 734 mmHg 89%
    02:00 -9°C° 0 mm 3 m/s 734 mmHg 88%
    03:00 -10°C° 0 mm 3 m/s 734 mmHg 90%
    04:00 -12°C° 0 mm 3 m/s 734 mmHg 92%
    05:00 -13°C° 0 mm 3 m/s 733 mmHg 94%
    06:00 -12°C° 0.1 mm 3 m/s 733 mmHg 93%
    07:00 -11°C° 0.1 mm 4 m/s 732 mmHg 92%
    08:00 -11°C° 0.1 mm 5 m/s 732 mmHg 91%
    09:00 -10°C° 0.5 mm 5 m/s 731 mmHg 91%
    10:00 -8°C° 0.5 mm 5 m/s 730 mmHg 91%
    11:00 -8°C° 0.5 mm 6 m/s 730 mmHg 91%
    12:00 -6°C° 0.5 mm 6 m/s 729 mmHg 90%
    13:00 -4°C° 0.5 mm 6 m/s 729 mmHg 88%
    14:00 -2°C° 0.5 mm 6 m/s 728 mmHg 87%
    15:00 -2°C° 0.3 mm 6 m/s 727 mmHg 87%
    16:00 -2°C° 0.3 mm 6 m/s 727 mmHg 87%
    17:00 -2°C° 0.3 mm 6 m/s 727 mmHg 86%
    18:00 -2°C° 0.5 mm 6 m/s 726 mmHg 86%
    19:00 -2°C° 0.5 mm 6 m/s 725 mmHg 86%
    20:00 -2°C° 0.5 mm 6 m/s 725 mmHg 86%
    21:00 -2°C° 0.2 mm 7 m/s 724 mmHg 85%
    22:00 -2°C° 0.2 mm 7 m/s 724 mmHg 84%
    23:00 -1°C° 0.2 mm 7 m/s 724 mmHg 84%

    Poimâine, 18 Ianuarie, Vineri

    Timp Temperatura Precipitaţii Vânt Presiune Umiditate
    00:00 -1°C° 0.1 mm 7 m/s 724 mmHg 83%
    01:00 -1°C° 0.1 mm 7 m/s 725 mmHg 82%
    02:00 -1°C° 0.1 mm 7 m/s 726 mmHg 82%
    03:00 -2°C° 0.1 mm 6 m/s 727 mmHg 83%
    04:00 -2°C° 0.1 mm 6 m/s 727 mmHg 85%
    05:00 -1°C° 0.1 mm 5 m/s 728 mmHg 86%
    06:00 -1°C° 0.1 mm 4 m/s 729 mmHg 88%
    07:00 -2°C° 0.1 mm 4 m/s 729 mmHg 89%
    08:00 -1°C° 0.1 mm 3 m/s 730 mmHg 91%
    09:00 -1°C° 0.2 mm 3 m/s 730 mmHg 91%
    10:00 -1°C° 0.2 mm 3 m/s 731 mmHg 92%
    11:00 -2°C° 0.2 mm 2 m/s 731 mmHg 93%
    12:00 -3°C° 0.5 mm 2 m/s 732 mmHg 93%
    13:00 -4°C° 0.5 mm 2 m/s 732 mmHg 94%
    14:00 -5°C° 0.5 mm 2 m/s 732 mmHg 95%
    15:00 -6°C° 0.2 mm 2 m/s 732 mmHg 94%
    16:00 -7°C° 0.2 mm 2 m/s 732 mmHg 94%
    17:00 -8°C° 0.2 mm 2 m/s 732 mmHg 94%
    18:00 -8°C° 0.1 mm 2 m/s 732 mmHg 93%
    19:00 -8°C° 0.1 mm 2 m/s 732 mmHg 92%
    20:00 -10°C° 0.1 mm 3 m/s 733 mmHg 91%
    21:00 -10°C° 0 mm 3 m/s 733 mmHg 92%
    22:00 -10°C° 0 mm 2 m/s 734 mmHg 92%
    23:00 -12°C° 0 mm 2 m/s 734 mmHg 93%

    19 Ianuarie, Sâmbătă

    Timp Temperatura Precipitaţii Vânt Presiune Umiditate
    00:00 -13°C° 0 mm 3 m/s 735 mmHg 93%
    01:00 -14°C° 0 mm 3 m/s 736 mmHg 93%
    02:00 -14°C° 0 mm 3 m/s 736 mmHg 93%
    03:00 -13°C° 0 mm 3 m/s 736 mmHg 91%
    04:00 -12°C° 0 mm 3 m/s 737 mmHg 90%
    05:00 -10°C° 0 mm 3 m/s 737 mmHg 88%
    06:00 -10°C° 0 mm 4 m/s 737 mmHg 88%
    07:00 -10°C° 0 mm 4 m/s 738 mmHg 88%
    08:00 -9°C° 0 mm 4 m/s 738 mmHg 89%
    09:00 -9°C° 0 mm 4 m/s 738 mmHg 88%
    10:00 -8°C° 0 mm 4 m/s 739 mmHg 87%
    11:00 -8°C° 0 mm 5 m/s 739 mmHg 86%
    12:00 -8°C° 0.1 mm 5 m/s 739 mmHg 85%
    13:00 -7°C° 0.1 mm 5 m/s 739 mmHg 84%
    14:00 -7°C° 0.1 mm 5 m/s 740 mmHg 83%
    15:00 -7°C° 0 mm 5 m/s 740 mmHg 84%
    16:00 -8°C° 0 mm 4 m/s 740 mmHg 85%
    17:00 -9°C° 0 mm 4 m/s 740 mmHg 86%
    18:00 -8°C° 0.1 mm 4 m/s 740 mmHg 87%
    19:00 -8°C° 0.1 mm 4 m/s 741 mmHg 87%
    20:00 -8°C° 0.1 mm 4 m/s 741 mmHg 88%
    21:00 -8°C° 0.1 mm 4 m/s 741 mmHg 89%
    22:00 -7°C° 0.1 mm 3 m/s 742 mmHg 90%
    23:00 -7°C° 0.1 mm 3 m/s 742 mmHg 91%

    20 Ianuarie, Duminică

    Timp Temperatura Precipitaţii Vânt Presiune Umiditate
    00:00 -7°C° 0.1 mm 3 m/s 742 mmHg 91%
    01:00 -7°C° 0.1 mm 3 m/s 742 mmHg 90%
    02:00 -7°C° 0.1 mm 3 m/s 743 mmHg 90%
    03:00 -8°C° 0 mm 3 m/s 743 mmHg 91%
    04:00 -9°C° 0 mm 3 m/s 743 mmHg 92%
    05:00 -10°C° 0 mm 3 m/s 743 mmHg 93%
    06:00 -10°C° 0 mm 3 m/s 743 mmHg 93%
    07:00 -10°C° 0 mm 3 m/s 743 mmHg 93%
    08:00 -10°C° 0 mm 3 m/s 743 mmHg 93%
    09:00 -9°C° 0 mm 3 m/s 743 mmHg 92%
    10:00 -9°C° 0 mm 3 m/s 744 mmHg 91%
    11:00 -10°C° 0 mm 4 m/s 744 mmHg 91%
    12:00 -8°C° 0 mm 3 m/s 744 mmHg 91%
    13:00 -8°C° 0 mm 3 m/s 744 mmHg 91%
    14:00 -8°C° 0 mm 3 m/s 744 mmHg 91%
    15:00 -8°C° 0.1 mm 3 m/s 744 mmHg 92%
    16:00 -9°C° 0.1 mm 3 m/s 744 mmHg 93%
    17:00 -8°C° 0.1 mm 2 m/s 744 mmHg 94%
    18:00 -8°C° 0.1 mm 2 m/s 744 mmHg 94%
    19:00 -8°C° 0.1 mm 2 m/s 744 mmHg 94%
    20:00 -8°C° 0.1 mm 2 m/s 744 mmHg 94%
    21:00 -9°C° 0 mm 2 m/s 744 mmHg 94%
    22:00 -9°C° 0 mm 2 m/s 744 mmHg 95%
    23:00 -10°C° 0 mm 2 m/s 744 mmHg 95%

    21 Ianuarie, Luni

    Timp Temperatura Precipitaţii Vânt Presiune Umiditate
    00:00 -10°C° 0 mm 2 m/s 744 mmHg 95%
    01:00 -12°C° 0 mm 2 m/s 744 mmHg 96%
    02:00 -13°C° 0 mm 2 m/s 744 mmHg 96%
    03:00 -13°C° 0 mm 2 m/s 744 mmHg 96%
    04:00 -13°C° 0 mm 2 m/s 744 mmHg 96%
    05:00 -13°C° 0 mm 2 m/s 744 mmHg 96%
    06:00 -14°C° 0 mm 2 m/s 744 mmHg 96%
    07:00 -12°C° 0 mm 1 m/s 744 mmHg 95%
    08:00 -12°C° 0 mm 1 m/s 744 mmHg 95%
    09:00 -11°C° 0 mm 1 m/s 744 mmHg 94%
    10:00 -10°C° 0 mm 1 m/s 744 mmHg 93%
    11:00 -9°C° 0 mm 1 m/s 744 mmHg 93%
    12:00 -9°C° 0 mm 1 m/s 744 mmHg 92%
    13:00 -9°C° 0 mm 1 m/s 744 mmHg 92%
    14:00 -8°C° 0 mm 1 m/s 744 mmHg 92%
    15:00 -9°C° 0 mm 1 m/s 744 mmHg 93%
    16:00 -9°C° 0 mm 1 m/s 744 mmHg 93%
    17:00 -10°C° 0 mm 1 m/s 744 mmHg 94%
    18:00 -10°C° 0 mm 1 m/s 744 mmHg 94%
    19:00 -11°C° 0 mm 1 m/s 744 mmHg 95%
    20:00 -11°C° 0 mm 1 m/s 744 mmHg 95%
    21:00 -12°C° 0 mm 1 m/s 744 mmHg 96%
    22:00 -15°C° 0 mm 2 m/s 745 mmHg 96%
    23:00 -16°C° 0 mm 2 m/s 745 mmHg 97%
    Arată mai mult